Flag for U.S.A. Weather past 2 weeks in Oceanside, California, U.S.A.

Now
48 °F

Clear.


Feels Like: 48 °F
Forecast: 47 / 69 °F
Wind: No wind

Location: Oceanside Weather Reporting Station

Current Time: Feb 26, 2015 at 11:56:21 PM

Latest Report: Feb 26, 2015 at 10:52 PM


Visibility: 9 mi

Pressure: 29.85 "Hg

Humidity: 93%

Dew point: 46 °F

Location of OceansideLocation

Historic Weather in Oceanside — Graph

°F

Oceanside temperature yesterday

Maximum temperature yesterday: 67 °F (at 11:52 AM)
Minimum temperature yesterday: 40 °F (at 4:52 AM)
Average temperature yesterday: 53 °F

Past Weeks' High & Low Weather Summary

 TemperatureHumidityPressure
High85 °F (Feb 12, 10:52 AM)97% (Feb 19, 3:52 AM)30.22 "Hg (Feb 19, 3:52 AM)
Low38 °F (Feb 26, 6:03 AM)13% (Feb 12, 11:52 AM)29.84 "Hg (Feb 26, 4:52 PM)
Average58 °F67%30.01 "Hg
* Reported Feb 11 10:52 PM — Feb 26 10:52 PM, Oceanside, Weather by CustomWeather, © 2015

Note: Actual official high and low records may vary slightly from our data, if they occured in-between our weather recording intervals... More about our weather records

Advertising

Oceanside weather history for previous 24 hours

 ConditionsComfort  
Time TempWeatherWind HumidityBarometerVisibility
10:52 PM
Thu, Feb 26
48 °FClear.No wind93%29.85 "Hg9 mi
9:52 PM48 °FClear.No wind89%29.86 "Hg10 mi
8:52 PM50 °FClear.No wind86%29.86 "Hg10 mi
7:52 PM51 °FClear.No wind86%29.86 "Hg10 mi
6:52 PM55 °FClear.3 mph80%29.85 "Hg10 mi
5:52 PM60 °FClear.3 mph72%29.84 "Hg10 mi
4:52 PM62 °FSunny.6 mph67%29.84 "Hg10 mi
3:52 PM64 °FSunny.7 mph63%29.85 "Hg10 mi
2:52 PM65 °FSunny.8 mph61%29.85 "Hg10 mi
1:52 PM66 °FSunny.10 mph59%29.85 "Hg10 mi
12:52 PM65 °FSunny.10 mph59%29.87 "Hg10 mi
11:52 AM67 °FSunny.9 mph57%29.89 "Hg10 mi
10:52 AM66 °FSunny.3 mph56%29.94 "Hg10 mi
9:52 AM62 °FSunny.No wind65%29.95 "Hg10 mi
8:52 AM56 °FScattered clouds.3 mph70%29.96 "Hg10 mi
7:52 AM48 °FLow clouds.No wind83%29.98 "Hg10 mi
6:52 AM41 °FLow clouds.No wind93%29.95 "Hg10 mi
6:03 AM38 °FPassing clouds.No wind93%29.94 "Hg10 mi
5:52 AM39 °FClear.3 mph93%29.93 "Hg10 mi
4:52 AM41 °FClear.No wind89%29.93 "Hg10 mi
3:52 AM41 °FClear.No wind89%29.95 "Hg9 mi
2:52 AM41 °FClear.No wind89%29.97 "Hg8 mi
1:52 AM44 °FClear.No wind85%29.99 "Hg10 mi
12:52 AM44 °FFog.No wind89%30.00 "Hg6 mi
11:52 PM
Wed, Feb 25
45 °FClear.3 mph90%30.02 "Hg9 mi
Weather by CustomWeather, © 2015

See weather overviewHow to use our weather pages